Weather in Nova Basan

Ukraine / Chernihiv Region     50°34′03″N   31°30′28″E
temp.,
°C
wind,
m/s
gust,
m/s
humid.,
%
clouds,
%
prec.,
mm/h
press.,
hPa
HPBL,
m
15 april, thu
thu1500:00+11sw2369100 0.0 101342
03:00+10ese2377100 0.0 101360
06:00+9e2289100 0.1 101258
09:00+9sse2393100 1.1 1012130
12:00+9sse4690100 2.3 1012316
15:00+9ssw2488100 3.4 1012234
18:00+9w2381100 0.1 1011252
21:00+9nne1186100 0.1 101135
16 april, fri
fri1600:00+8ne228992 0.0 101039
03:00+8e2290100 0.0 101039
06:00+7ese2495100 0.0 1010138
09:00+8se3693100 0.2 1010385
12:00+8sse4891100 0.5 1012547
15:00+9sse5782100 0.6 1013821
18:00+8s458269 0.0 1014602
21:00+6s359098 0.0 1016306
17 april, sat
sat1700:00+6s2493100 0.0 1016284
03:00+6s239582 0.0 1017155
06:00+6wsw229475 0.0 1019111
09:00+7wsw228789 0.0 1020445
12:00+9wsw227499 0.0 1021796
15:00+10sw216796 0.1 1022988
18:00+10wsw326955 0.0 1021474
21:00+8wsw337472 0.0 102269
18 april, sun
sun1800:00+8w357491 0.0 1022142
03:00+6nw369194 0.0 1022119
06:00+5wnw249051 0.0 102271
09:00+8wnw347999 0.0 1022263
12:00+11nnw227397 0.0 1022592
15:00+13ene336892 0.1 10221071
18:00+13e356969 0.1 1022751
21:00+11ene4881100 0.3 1023281
19 april, mon
mon1900:00+10e4984100 0.2 1024292
03:00+9e3887100 0.3 1024256
06:00+7e499011 0.0 1024223
09:00+10ese6107092 0.1 1025546
12:00+13ese6954100 0.0 10241446
15:00+14ese695293 0.0 10231837
18:00+14e6955100 0.0 10221175
21:00+11e51264100 0.0 1021475